Location: *
(37.9500°N, 27.3666°E)
Time: 15:38:22
(UTC+00:00)

Cosmos 2173 Rocket - Pass Details

Date: 24 October 2021
Orbit: 945 x 1000 km, 83.0° (Epoch: 06 December)

Event Time Altitude Azimuth Distance (km) Brightness Sun altitude
Rises 16:43:47 0° 159° (SSE) 3,624 6.8 -17.0°
Reaches altitude 10° 16:46:29 10° 150° (SSE) 2,690 6.0 -17.5°
Maximum altitude 16:51:55 34° 88° (E) 1,544 4.5 -18.6°
Drops below altitude 10° 16:57:27 10° 25° (NNE) 2,740 6.1 -19.7°
Sets 17:00:12 0° 17° (NNE) 3,700 6.9 -20.2°
